Terminal Aerodrome Forecast
Issued by NWS

Home | Current Version | Previous Version | Text Only | Print | Product List | Glossary On
Versions: 1 2 3 4 5 6 7 8 9 10 11 12 13 14
000
FTUS42 KTBW 042335
TAFLAL
TAF
KLAL 042335Z 0500/0524 VRB06KT P6SM VCTS SCT040CB BKN150
     FM050300 VRB03KT P6SM SCT050 BKN250
     FM051400 18005KT P6SM FEW030 SCT250
     FM051700 VRB06KT P6SM VCTS SCT045CB BKN250=

USA.gov is the U.S. government's official web portal to all federal, state and local government web resources and services.